Location: LDNL
(36.4545°S, 141.6685°E)
Time: 12:45:12
(UTC+10:00)

Vanguard 3 - Pass Details

Date: 30 January 2022
Orbit: 508 x 3258 km, 33.3° (Epoch: 25 May)

Event Time Altitude Azimuth Distance (km) Brightness Sun altitude
Rises 06:47:36 0° 259° (WSW) 5,839 11.0 -0.8°
Reaches altitude 10° 06:51:20 10° 266° (W) 5,157 10.7 -0.1°
Maximum altitude 07:05:51 40° 327° (NNW) 4,034 10.4 2.6°
Drops below altitude 10° 07:23:21 10° 28° (NNE) 6,109 11.8 6.0°
Sets 07:28:21 0° 35° (NE) 6,971 12.2 6.9°
